DW1289 Weather Reports


time (UTC)temp
F
wind
direction
speed
knots
gust
knots
rain 1hr
in
rain 24hr
in
rain mn
in
humidity
%
barometer
mb
20260902194016 98 248 2.6 9.6 0.00 0.00 0.00 47 1017.3
20260902193016 98 248 1.7 6.1 0.00 0.00 0.00 50 1017.4
20260902192016 97 248 3.5 9.6 0.00 0.00 0.00 49 1017.5
20260902191016 98 248 3.5 7.8 0.00 0.00 0.00 48 1017.5
20260902190016 97 248 2.6 7.8 0.00 0.00 0.00 50 1017.7
20260902185016 97 225 2.6 7.8 0.00 0.00 0.00 52 1017.7
20260902184017 98 248 3.5 7.0 0.00 0.00 0.00 52 1017.8
20260902183016 97 248 2.6 7.0 0.00 0.00 0.00 54 1017.9
20260902182036 97 248 2.6 7.0 0.00 0.00 0.00 51 1017.9
20260902181016 96 270 2.6 8.7 0.00 0.00 0.00 53 1017.9
20260902180016 96 248 1.7 7.8 0.00 0.00 0.00 51 1018.0
20260902175016 95 248 2.6 6.1 0.00 0.00 0.00 55 1018.1
20260902174016 98 270 2.6 7.8 0.00 0.00 0.00 50 1018.2
20260902173056 98 248 3.5 7.8 0.00 0.00 0.00 50 1018.5
20260902172016 97 248 3.5 7.8 0.00 0.00 0.00 52 1018.6
20260902171016 97 248 3.5 7.0 0.00 0.00 0.00 51 1018.6
20260902170016 98 248 3.5 7.0 0.00 0.00 0.00 51 1018.7
20260902165036 97 248 3.5 7.0 0.00 0.00 0.00 52 1019.0
20260902164016 97 248 1.7 6.1 0.00 0.00 0.00 51 1019.1
20260902163016 96 248 2.6 7.0 0.00 0.00 0.00 55 1019.1
20260902162016 96 248 3.5 7.0 0.00 0.00 0.00 55 1019.1
20260902161016 95 248 3.5 7.8 0.00 0.00 0.00 56 1019.1
20260902160016 95 248 2.6 6.1 0.00 0.00 0.00 54 1019.2
20260902155016 94 248 2.6 7.0 0.00 0.00 0.00 56 1019.3
20260902154016 94 248 2.6 8.7 0.00 0.00 0.00 60 1019.3
20260902153016 93 248 2.6 7.8 0.00 0.00 0.00 60 1019.4
20260902152056 92 248 2.6 6.1 0.00 0.00 0.00 61 1019.3
20260902151016 92 248 2.6 7.0 0.00 0.00 0.00 63 1019.3
20260902150016 91 248 1.7 7.0 0.00 0.00 0.00 65 1019.3
20260902145016 90 225 0.9 4.3 0.00 0.00 0.00 68 1019.4
20260902144016 89 0.0 0.0 0.00 0.00 0.00 71 1019.5
20260902143016 88 0.0 0.0 0.00 0.00 0.00 72 1019.3
20260902142036 87 0.0 0.0 0.00 0.00 0.00 75 1019.3
20260902141016 85 0.0 0.0 0.00 0.00 0.00 76 1019.4
20260902140016 84 0.0 0.0 0.00 0.00 0.00 78 1019.4
20260902135016 83 0.0 0.0 0.00 0.00 0.00 80 1019.3
20260902134016 81 0.0 0.0 0.00 0.00 0.00 83 1019.4
20260902133016 79 0.0 0.0 0.00 0.00 0.00 87 1019.4
20260902132016 78 0.0 0.0 0.00 0.00 0.00 89 1019.3
20260902131016 77 0.0 0.0 0.00 0.00 0.00 92 1019.3
20260902130016 76 0.0 0.0 0.00 0.00 0.00 93 1019.3
20260902125016 75 0.0 0.0 0.00 0.00 0.00 93 1019.3
20260902124016 75 0.0 0.0 0.00 0.00 0.00 93 1019.2
20260902123036 74 0.0 0.0 0.00 0.00 0.00 93 1019.2
20260902122036 74 0.0 0.0 0.00 0.00 0.00 93 1019.1
20260902121016 74 0.0 0.0 0.00 0.00 0.00 93 1018.9
20260902120036 74 0.0 0.0 0.00 0.00 0.00 93 1019.0
20260902115016 74 0.0 0.0 0.00 0.00 0.00 93 1019.0
20260902114016 73 0.0 0.0 0.00 0.00 0.00 93 1018.7
20260902113016 73 0.0 0.0 0.00 0.00 0.00 93 1018.7
20260902112016 73 0.0 0.0 0.00 0.00 0.00 93 1018.6
20260902111016 73 0.0 0.0 0.00 0.00 0.00 93 1018.6
20260902110016 73 0.0 0.0 0.00 0.00 0.00 93 1018.6
20260902105016 73 0.0 0.0 0.00 0.00 0.00 92 1018.5
20260902104016 73 0.0 0.0 0.00 0.00 0.00 92 1018.4
20260902103016 73 0.0 0.0 0.00 0.00 0.00 92 1018.3
20260902102016 74 0.0 0.0 0.00 0.00 0.00 92 1018.2
20260902101016 74 0.0 0.0 0.00 0.00 0.00 92 1018.1
20260902100056 74 0.0 0.0 0.00 0.00 0.00 92 1018.1
20260902095016 74 0.0 0.0 0.00 0.00 0.00 92 1018.1
20260902094016 74 0.0 0.0 0.00 0.00 0.00 92 1018.1
20260902093036 74 0.0 0.0 0.00 0.00 0.00 92 1017.9
20260902092016 74 0.0 0.0 0.00 0.00 0.00 92 1017.9
20260902091016 74 0.0 0.0 0.00 0.00 0.00 92 1017.6
20260902090016 74 0.0 0.0 0.00 0.00 0.00 92 1017.6
20260902085016 74 0.0 0.0 0.00 0.00 0.00 92 1017.6
20260902084016 75 0.0 0.0 0.00 0.00 0.00 91 1017.6
20260902083016 75 0.0 0.0 0.00 0.00 0.00 91 1017.7
20260902082016 75 0.0 0.0 0.00 0.00 0.00 91 1017.8
20260902081016 75 0.0 0.0 0.00 0.00 0.00 91 1017.6
20260902080016 75 0.0 0.0 0.00 0.00 0.00 91 1017.6
20260902075016 75 0.0 0.0 0.00 0.00 0.00 91 1017.5
20260902074016 75 0.0 0.0 0.00 0.00 0.00 90 1017.5
20260902073016 75 0.0 0.0 0.00 0.00 0.00 90 1017.4
20260902072016 75 0.0 0.0 0.00 0.00 0.00 90 1017.5
20260902071016 76 0.0 0.0 0.00 0.00 0.00 90 1017.5
20260902070016 76 0.0 0.0 0.00 0.00 0.00 89 1017.5
20260902065016 76 0.0 0.0 0.00 0.00 0.00 89 1017.5
20260902064016 76 0.0 0.0 0.00 0.00 0.00 89 1017.5
20260902063016 76 0.0 0.0 0.00 0.00 0.00 88 1017.6
20260902062016 76 0.0 0.0 0.00 0.00 0.00 88 1017.5
20260902061016 76 0.0 0.0 0.00 0.00 0.00 88 1017.5
20260902060016 76 0.0 0.0 0.00 0.00 0.00 87 1017.7
20260902055016 77 0.0 0.0 0.00 0.00 0.00 87 1017.7
20260902054036 77 0.0 0.0 0.00 0.00 0.00 87 1017.7
20260902053016 77 0.0 0.0 0.00 0.00 0.00 86 1017.6
20260902052016 78 0.0 0.0 0.00 0.00 0.00 86 1017.6
20260902051016 78 0.0 0.0 0.00 0.00 0.00 85 1017.6
20260902050016 78 0.0 0.0 0.00 0.00 0.00 85 1017.6
20260902045016 78 0.0 0.0 0.00 0.00 0.00 84 1017.5
20260902044016 78 0.0 0.0 0.00 0.00 0.00 84 1017.6
20260902043016 78 0.0 0.0 0.00 0.00 0.00 85 1017.6
20260902042016 79 0.0 0.0 0.00 0.00 0.00 85 1017.6
20260902041016 79 0.0 0.0 0.00 0.00 0.00 85 1017.6
20260902040016 79 0.0 0.0 0.00 0.00 0.00 85 1017.5
20260902035037 79 0.0 0.0 0.00 0.00 0.00 84 1017.4
20260902034016 79 0.0 0.0 0.00 0.00 0.00 83 1017.5
20260902033017 79 0.0 0.0 0.00 0.00 0.00 82 1017.5
20260902032036 79 0.0 0.0 0.00 0.00 0.00 82 1017.6
20260902031016 79 0.0 0.0 0.00 0.00 0.00 81 1017.6
20260902030056 80 0.0 0.0 0.00 0.00 0.00 81 1017.5
20260902025016 80 0.0 0.0 0.00 0.00 0.00 80 1017.4
20260902024016 80 0.0 0.0 0.00 0.00 0.00 79 1017.4
20260902023016 81 0.0 0.0 0.00 0.00 0.00 79 1017.3
20260902022016 81 0.0 0.0 0.00 0.00 0.00 79 1017.3
20260902021036 81 0.0 0.0 0.00 0.00 0.00 79 1017.3
20260902020016 81 0.0 0.0 0.00 0.00 0.00 79 1017.3
20260902015016 81 0.0 0.0 0.00 0.00 0.00 80 1017.3
20260902014016 81 0.0 0.0 0.00 0.00 0.00 80 1017.3
20260902013016 82 0.0 0.0 0.00 0.00 0.00 80 1017.1
20260902012016 82 0.0 0.0 0.00 0.00 0.00 78 1017.0
20260902011016 83 0.0 0.0 0.00 0.00 0.00 77 1016.9
20260902010016 83 0.0 0.0 0.00 0.00 0.00 76 1016.8
20260902005016 84 0.0 0.0 0.00 0.00 0.00 74 1016.7
20260902004016 85 0.0 0.0 0.00 0.00 0.00 74 1016.6
20260902003016 86 0.0 0.0 0.00 0.00 0.00 72 1016.5
20260902002016 86 0.0 0.0 0.00 0.00 0.00 70 1016.5
20260902001016 88 0.0 0.0 0.00 0.00 0.00 67 1016.6
20260902000016 89 0.0 0.0 0.00 0.00 0.00 64 1016.7
20260901235016 90 0.0 0.0 0.00 0.00 0.00 60 1016.7
20260901234016 91 0.0 0.9 0.00 0.00 0.00 57 1016.8
20260901233016 92 225 0.9 2.6 0.00 0.00 0.00 55 1016.9
20260901232016 93 0.0 2.6 0.00 0.00 0.00 55 1017.0
20260901231016 93 270 0.9 2.6 0.00 0.00 0.00 53 1017.0
20260901230016 93 248 0.9 2.6 0.00 0.00 0.00 52 1017.0
20260901225016 94 270 0.9 3.5 0.00 0.00 0.00 52 1017.0
20260901224016 94 248 1.7 3.5 0.00 0.00 0.00 51 1017.0
20260901223016 94 248 1.7 6.1 0.00 0.00 0.00 49 1017.0
20260901222016 94 248 2.6 5.2 0.00 0.00 0.00 48 1016.9
20260901221016 95 248 1.7 4.3 0.00 0.00 0.00 49 1016.9
20260901220016 95 248 2.6 7.0 0.00 0.00 0.00 49 1016.9
20260901215016 95 248 1.7 5.2 0.00 0.00 0.00 48 1016.8
20260901214056 95 248 2.6 7.8 0.00 0.00 0.00 47 1016.8
20260901213036 96 248 1.7 7.0 0.00 0.00 0.00 48 1016.8
20260901212016 96 248 2.6 7.0 0.00 0.00 0.00 48 1017.0
20260901211016 96 248 1.7 5.2 0.00 0.00 0.00 49 1016.9
20260901210016 96 248 2.6 8.7 0.00 0.00 0.00 48 1017.0
20260901205016 96 248 3.5 7.8 0.00 0.00 0.00 47 1017.1
20260901204016 96 248 3.5 7.8 0.00 0.00 0.00 47 1017.2
20260901203016 96 248 1.7 6.1 0.00 0.00 0.00 50 1017.2
20260901202036 97 248 3.5 7.0 0.00 0.00 0.00 48 1017.5
20260901201016 97 248 1.7 6.1 0.00 0.00 0.00 49 1017.5
20260901200016 97 248 3.5 8.7 0.00 0.00 0.00 50 1017.5
20260901195056 96 248 3.5 9.6 0.00 0.00 0.00 50 1017.6